Flag for Saudi Arabia Weather past 2 weeks in Turaif, Saudi Arabia

Now
75 °F

Sunny.


Feels Like: 77 °F
Forecast: 52 / 79 °F
Wind: 5 mph from East

Location: Turaif

Current Time: Apr 18, 2015 at 12:37:41 PM

Latest Report: Apr 18, 2015 at 12:00 PM


Visibility: 10 mi

Pressure: 30.18 "Hg

Humidity: 25%

Dew point: 37 °F

Location of TuraifLocation

Historic Weather in Turaif — Graph

°F

Turaif temperature yesterday

Maximum temperature yesterday: 75 °F (at 2:00 PM)
Minimum temperature yesterday: 45 °F (at 6:00 AM)
Average temperature yesterday: 62 °F

Past Weeks' High & Low Weather Summary

 TemperatureHumidityPressure
High91 °F (Apr 9, 2:00 PM)100% (Apr 13, 6:00 AM)30.24 "Hg (Apr 13, 6:00 AM)
Low39 °F (Apr 13, 6:00 AM)14% (Apr 7, 6:00 PM)29.65 "Hg (Apr 9, 4:00 PM)
Average62 °F44%29.98 "Hg
* Reported Apr 3 11:00 AM — Apr 18 11:00 AM, Turaif, Weather by CustomWeather, © 2015

Note: Actual official high and low records may vary slightly from our data, if they occured in-between our weather recording intervals... More about our weather records

Advertising

Turaif weather history for previous 24 hours

 ConditionsComfort  
Time TempWeatherWind HumidityBarometerVisibility
11:00 AM
Sat, Apr 18
72 °FSunny.7 mph29%30.21 "Hg10 mi
10:00 AM68 °FSunny.12 mph35%30.21 "Hg10 mi
9:00 AM63 °FSunny.14 mph45%30.21 "Hg10 mi
8:00 AM57 °FSunny.12 mph48%30.18 "Hg10 mi
7:00 AM54 °FSunny.14 mph58%30.18 "Hg10 mi
6:00 AM50 °FClear.9 mph67%30.18 "Hg10 mi
5:00 AM52 °FClear.10 mph58%30.15 "Hg10 mi
4:00 AM54 °FClear.8 mph54%30.15 "Hg10 mi
3:00 AM55 °FClear.7 mph47%30.15 "Hg10 mi
2:00 AM57 °FClear.9 mph41%30.18 "Hg10 mi
1:00 AM57 °FClear.9 mph39%30.18 "Hg10 mi
12:00 AM59 °FClear.9 mph36%30.18 "Hg10 mi
11:00 PM
Fri, Apr 17
63 °FClear.6 mph24%30.15 "Hg10 mi
10:00 PM64 °FClear.7 mph22%30.15 "Hg10 mi
9:00 PM66 °FClear.3 mph19%30.15 "Hg10 mi
8:00 PM68 °FClear.6 mph20%30.12 "Hg10 mi
7:00 PM70 °FSunny.6 mph18%30.12 "Hg10 mi
6:00 PM72 °FSunny.6 mph17%30.12 "Hg10 mi
5:00 PM75 °FSunny.3 mph16%30.15 "Hg10 mi
4:00 PM75 °FSunny.3 mph16%30.15 "Hg10 mi
3:00 PM75 °FSunny.2 mph18%30.15 "Hg10 mi
2:00 PM75 °FSunny.9 mph24%30.21 "Hg10 mi
1:00 PM73 °FSunny.8 mph25%30.21 "Hg10 mi
12:00 PM72 °FSunny.7 mph27%30.24 "Hg10 mi
Weather by CustomWeather, © 2015

See weather overviewHow to use our weather pages